View from above orbital plane
|
View from above satellite
|
Ground track
|
The orbit data is extracted from the following two-line orbital elements,
1 14148U 83061B 21058.82256190 .00000093 00000-0 83791-5 0 9990
2 14148 82.5159 83.5195 0021176 193.5508 339.2628 14.83367089 35201
Epoch (UTC): | 27 February 2021 19:44:29 |
Eccentricity: | 0.0021176 |
inclination: | 82.5159° |
perigee height: | 604 km |
apogee height: | 633 km |
right ascension of ascending node: | 83.5195° |
argument of perigee: | 193.5508° |
revolutions per day: | 14.83367089 |
mean anomaly at epoch: | 339.2628° |
orbit number at epoch: | 3520 |
The dashed part of the orbit path shows where the satellite is in the earth's shadow,
|
|